When you browse on this site, cookies collect data to enhance your experience and personalize the content and advertising you see.
Visit our Privacy Policy to learn more. By continuing to use the site, you agree to this use of cookies and data.
  • In Hungary
  • List of Countries
  • For 7 days
  • Water Temperature
  • Satellite Maps
  • Weather Map
  • News
  • Weather Widgets
  • user-avatar
    Login

    Hourly Weather Urakaevo

    Today, 21 November, Wednesday

    Time Temperature Precipitation Wind Pressure Humidity
    00:00 -5°C° 0 mm 4 mps 751 mmHg 86%
    01:00 -6°C° 0 mm 5 mps 750 mmHg 86%
    02:00 -7°C° 0 mm 5 mps 750 mmHg 85%
    03:00 -7°C° 0 mm 5 mps 749 mmHg 85%
    04:00 -7°C° 0 mm 5 mps 748 mmHg 87%
    05:00 -7°C° 0.2 mm 5 mps 748 mmHg 87%
    06:00 -7°C° 0.2 mm 5 mps 747 mmHg 87%
    07:00 -8°C° 0.2 mm 6 mps 746 mmHg 88%
    08:00 -8°C° 0.4 mm 6 mps 746 mmHg 88%
    09:00 -6°C° 0.4 mm 6 mps 745 mmHg 89%
    10:00 -6°C° 0.4 mm 6 mps 744 mmHg 90%
    11:00 -6°C° 0.5 mm 6 mps 744 mmHg 90%
    12:00 -6°C° 0.5 mm 5 mps 743 mmHg 89%
    13:00 -6°C° 0.5 mm 5 mps 742 mmHg 89%
    14:00 -6°C° 0.3 mm 5 mps 742 mmHg 89%
    15:00 -6°C° 0.3 mm 5 mps 741 mmHg 90%
    16:00 -5°C° 0.3 mm 4 mps 741 mmHg 90%
    17:00 -6°C° 0.3 mm 5 mps 741 mmHg 90%
    18:00 -5°C° 0.3 mm 5 mps 741 mmHg 89%
    19:00 -5°C° 0.3 mm 6 mps 741 mmHg 89%
    20:00 -6°C° 0.1 mm 6 mps 741 mmHg 86%
    21:00 -8°C° 0.1 mm 6 mps 741 mmHg 83%
    22:00 -9°C° 0.1 mm 6 mps 741 mmHg 81%
    23:00 -9°C° 0 mm 6 mps 741 mmHg 82%

    Tomorrow, 22 November, Thursday

    Time Temperature Precipitation Wind Pressure Humidity
    00:00 -10°C° 0 mm 5 mps 741 mmHg 83%
    01:00 -10°C° 0 mm 5 mps 741 mmHg 84%
    02:00 -10°C° 0 mm 5 mps 742 mmHg 85%
    03:00 -10°C° 0 mm 5 mps 742 mmHg 86%
    04:00 -11°C° 0 mm 5 mps 742 mmHg 87%
    05:00 -10°C° 0.1 mm 4 mps 742 mmHg 88%
    06:00 -10°C° 0.1 mm 4 mps 742 mmHg 88%
    07:00 -10°C° 0.1 mm 4 mps 742 mmHg 89%
    08:00 -10°C° 0 mm 4 mps 742 mmHg 90%
    09:00 -9°C° 0 mm 3 mps 742 mmHg 90%
    10:00 -10°C° 0 mm 3 mps 742 mmHg 91%
    11:00 -9°C° 0.1 mm 3 mps 741 mmHg 90%
    12:00 -8°C° 0.1 mm 3 mps 741 mmHg 90%
    13:00 -8°C° 0.1 mm 3 mps 741 mmHg 89%
    14:00 -8°C° 0.2 mm 4 mps 740 mmHg 90%
    15:00 -8°C° 0.2 mm 4 mps 739 mmHg 90%
    16:00 -8°C° 0.2 mm 5 mps 739 mmHg 90%
    17:00 -8°C° 0.2 mm 5 mps 738 mmHg 91%
    18:00 -7°C° 0.2 mm 5 mps 738 mmHg 91%
    19:00 -7°C° 0.2 mm 5 mps 737 mmHg 92%
    20:00 -7°C° 0.3 mm 5 mps 736 mmHg 92%
    21:00 -7°C° 0.3 mm 5 mps 736 mmHg 92%
    22:00 -7°C° 0.3 mm 5 mps 735 mmHg 92%
    23:00 -7°C° 0.3 mm 5 mps 734 mmHg 92%

    Day after tomorrow, 23 November, Friday

    Time Temperature Precipitation Wind Pressure Humidity
    00:00 -7°C° 0.3 mm 4 mps 734 mmHg 93%
    01:00 -7°C° 0.3 mm 4 mps 733 mmHg 93%
    02:00 -7°C° 0.4 mm 4 mps 733 mmHg 94%
    03:00 -8°C° 0.4 mm 4 mps 733 mmHg 94%
    04:00 -7°C° 0.4 mm 3 mps 733 mmHg 94%
    05:00 -7°C° 0.5 mm 3 mps 733 mmHg 95%
    06:00 -7°C° 0.5 mm 3 mps 733 mmHg 95%
    07:00 -7°C° 0.5 mm 3 mps 733 mmHg 95%
    08:00 -7°C° 0.3 mm 3 mps 733 mmHg 95%
    09:00 -7°C° 0.3 mm 3 mps 734 mmHg 95%
    10:00 -7°C° 0.3 mm 3 mps 734 mmHg 94%
    11:00 -8°C° 0.3 mm 4 mps 735 mmHg 93%
    12:00 -10°C° 0.3 mm 6 mps 736 mmHg 91%
    13:00 -11°C° 0.3 mm 7 mps 737 mmHg 89%
    14:00 -12°C° 0.2 mm 8 mps 738 mmHg 86%
    15:00 -12°C° 0.2 mm 8 mps 739 mmHg 83%
    16:00 -14°C° 0.2 mm 9 mps 741 mmHg 79%
    17:00 -15°C° 0 mm 8 mps 742 mmHg 79%
    18:00 -15°C° 0 mm 8 mps 743 mmHg 78%
    19:00 -15°C° 0 mm 7 mps 744 mmHg 78%
    20:00 -17°C° 0 mm 7 mps 745 mmHg 82%
    21:00 -17°C° 0 mm 6 mps 746 mmHg 86%
    22:00 -17°C° 0 mm 5 mps 747 mmHg 89%
    23:00 -18°C° 0 mm 5 mps 747 mmHg 91%

    24 November, Saturday

    Time Temperature Precipitation Wind Pressure Humidity
    00:00 -17°C° 0 mm 4 mps 748 mmHg 92%
    01:00 -18°C° 0 mm 4 mps 749 mmHg 93%
    02:00 -17°C° 0 mm 3 mps 749 mmHg 94%
    03:00 -17°C° 0 mm 3 mps 750 mmHg 95%
    04:00 -17°C° 0 mm 3 mps 750 mmHg 96%
    05:00 -17°C° 0 mm 3 mps 750 mmHg 96%
    06:00 -17°C° 0 mm 3 mps 751 mmHg 97%
    07:00 -17°C° 0 mm 3 mps 751 mmHg 97%
    08:00 -16°C° 0 mm 4 mps 751 mmHg 96%
    09:00 -15°C° 0 mm 4 mps 751 mmHg 94%
    10:00 -13°C° 0 mm 5 mps 750 mmHg 93%
    11:00 -13°C° 0.1 mm 5 mps 750 mmHg 92%
    12:00 -12°C° 0.1 mm 5 mps 750 mmHg 92%
    13:00 -11°C° 0.1 mm 6 mps 749 mmHg 91%
    14:00 -11°C° 0.1 mm 6 mps 749 mmHg 90%
    15:00 -10°C° 0.1 mm 6 mps 749 mmHg 89%
    16:00 -11°C° 0.1 mm 7 mps 748 mmHg 88%
    17:00 -11°C° 0.1 mm 7 mps 748 mmHg 88%
    18:00 -11°C° 0.1 mm 7 mps 748 mmHg 87%
    19:00 -9°C° 0.1 mm 7 mps 748 mmHg 87%
    20:00 -9°C° 0.1 mm 7 mps 748 mmHg 87%
    21:00 -9°C° 0.1 mm 7 mps 748 mmHg 87%
    22:00 -8°C° 0.1 mm 7 mps 747 mmHg 87%
    23:00 -8°C° 0.1 mm 6 mps 747 mmHg 87%

    25 November, Sunday

    Time Temperature Precipitation Wind Pressure Humidity
    00:00 -8°C° 0.1 mm 6 mps 747 mmHg 88%
    01:00 -8°C° 0.1 mm 6 mps 747 mmHg 88%
    02:00 -8°C° 0.1 mm 6 mps 747 mmHg 88%
    03:00 -8°C° 0.1 mm 6 mps 747 mmHg 88%
    04:00 -8°C° 0.1 mm 6 mps 747 mmHg 88%
    05:00 -6°C° 0.1 mm 6 mps 747 mmHg 89%
    06:00 -7°C° 0.1 mm 7 mps 747 mmHg 89%
    07:00 -7°C° 0.1 mm 7 mps 746 mmHg 89%
    08:00 -7°C° 0.2 mm 7 mps 746 mmHg 89%
    09:00 -7°C° 0.2 mm 7 mps 746 mmHg 88%
    10:00 -7°C° 0.2 mm 7 mps 746 mmHg 88%
    11:00 -6°C° 0.1 mm 7 mps 747 mmHg 86%
    12:00 -6°C° 0.1 mm 7 mps 747 mmHg 85%
    13:00 -6°C° 0.1 mm 7 mps 747 mmHg 84%
    14:00 -6°C° 0 mm 7 mps 748 mmHg 84%
    15:00 -6°C° 0 mm 6 mps 749 mmHg 84%
    16:00 -6°C° 0 mm 5 mps 749 mmHg 84%
    17:00 -7°C° 0 mm 5 mps 750 mmHg 86%
    18:00 -8°C° 0 mm 4 mps 751 mmHg 88%
    19:00 -9°C° 0 mm 4 mps 752 mmHg 91%
    20:00 -9°C° 0 mm 3 mps 752 mmHg 92%
    21:00 -9°C° 0 mm 3 mps 752 mmHg 93%
    22:00 -10°C° 0 mm 3 mps 753 mmHg 95%
    23:00 -10°C° 0 mm 2 mps 753 mmHg 95%

    26 November, Monday

    Time Temperature Precipitation Wind Pressure Humidity
    00:00 -10°C° 0 mm 2 mps 753 mmHg 95%
    01:00 -10°C° 0 mm 2 mps 753 mmHg 96%
    02:00 -10°C° 0 mm 2 mps 753 mmHg 96%
    03:00 -10°C° 0 mm 2 mps 753 mmHg 96%
    04:00 -9°C° 0 mm 1 mps 753 mmHg 96%
    05:00 -10°C° 0 mm 2 mps 753 mmHg 96%
    06:00 -10°C° 0 mm 2 mps 753 mmHg 96%
    07:00 -9°C° 0 mm 2 mps 752 mmHg 97%
    08:00 -8°C° 0.1 mm 2 mps 752 mmHg 96%
    09:00 -8°C° 0.1 mm 3 mps 752 mmHg 96%
    10:00 -7°C° 0.1 mm 3 mps 752 mmHg 95%
    11:00 -8°C° 0.3 mm 4 mps 751 mmHg 95%
    12:00 -7°C° 0.3 mm 4 mps 751 mmHg 94%
    13:00 -7°C° 0.3 mm 4 mps 751 mmHg 93%
    14:00 -5°C° 0.2 mm 4 mps 750 mmHg 93%
    15:00 -5°C° 0.2 mm 4 mps 750 mmHg 93%
    16:00 -5°C° 0.2 mm 3 mps 749 mmHg 94%
    17:00 -4°C° 0.1 mm 4 mps 749 mmHg 93%
    18:00 -3°C° 0.1 mm 4 mps 749 mmHg 92%
    19:00 -4°C° 0.1 mm 5 mps 748 mmHg 91%
    20:00 -4°C° 0.2 mm 5 mps 748 mmHg 91%
    21:00 -4°C° 0.2 mm 6 mps 747 mmHg 90%
    22:00 -4°C° 0.2 mm 6 mps 747 mmHg 90%
    23:00 -4°C° 0.2 mm 6 mps 747 mmHg 90%
    Show more